Dalton, GA

3:14 AM EST on December 16, 2019 (GMT -0500)
Dalton Municipal

Weather History for KDNN - November, 2019

Change the Weather History Date:

Tuesday, November 12, 2019

  Actual Average Record
Temperature  
Mean Temperature 40 °F -  
Max Temperature 53 °F 61 °F 80 °F (1989)
Min Temperature 26 °F 39 °F 26 °F (1954)
Degree Days  
Heating Degree Days 24    
Moisture  
Dew Point 29 °F    
Average Humidity 76    
Maximum Humidity 94    
Minimum Humidity 55    
Precipitation  
Precipitation 0.00 in - - ()
Sea Level Pressure  
Sea Level Pressure 30.20 in    
Wind  
Wind Speed 12 mph ()    
Max Wind Speed 24 mph    
Max Gust Speed 33 mph    
Visibility 8.4 miles    
Events Rain , Snow    
Averages and records for this station are not official NWS values.
T = Trace of Precipitation, MM = Missing Value Source: Averaged Metar Reports

Daily Weather History Graph

Daily Weather History Graph

Search for Another Location

Airport or City:

Astronomy

Nov. 12, 2019 Rise Set
Actual Time 7:10 AM EST 5:36 PM EST
Civil Twilight 6:43 AM EST 6:03 PM EST
Nautical Twilight 6:13 AM EST 6:33 PM EST
Astronomical Twilight 5:43 AM EST 7:03 PM EST
Moon 6:02 PM EST (11/12) 7:03 AM EST (11/12)
Length of Visible Light 11h 19m
Length of Day
10h 26m
Full, 100% of the Moon is Illuminated
Nov 12
Full
Nov 19
Last Quarter
Nov 26
New
Dec 4
First Quarter
Dec 12
Full

Hourly Weather History & Observations

Time (EST) Temp. Windchill Dew Point Humidity Pressure Visibility Wind Dir Wind Speed Gust Speed Precip Events Conditions
12:15 AM 53.6 °F - 51.8 °F 94% 30.02 in 5.0 mi Calm Calm - N/A Rain Light Rain
12:35 AM 53.6 °F - 51.8 °F 94% 30.02 in 5.0 mi Calm Calm - N/A Rain Rain
12:55 AM 53.6 °F - 51.8 °F 94% 30.01 in 5.0 mi Calm Calm - N/A Rain Light Rain
1:15 AM 53.6 °F - 51.8 °F 94% 30.00 in 5.0 mi Calm Calm - N/A Rain Light Rain
1:35 AM 53.6 °F - 51.8 °F 94% 30.00 in 5.0 mi Calm Calm - N/A   Drizzle
1:55 AM 53.6 °F - 51.8 °F 94% 30.00 in 3.0 mi NNW 18.4 mph 24.2 mph N/A Rain Rain
2:35 AM 46.4 °F 41.5 °F 44.6 °F 93% 30.02 in 5.0 mi NNW 10.4 mph 18.4 mph N/A   Unknown
2:55 AM 44.6 °F 37.4 °F 42.8 °F 93% 30.02 in 3.0 mi NNW 16.1 mph 26.5 mph N/A   Unknown
3:15 AM 44.6 °F 36.9 °F 41.0 °F 87% 30.02 in 3.0 mi North 18.4 mph 25.3 mph N/A   Unknown
3:35 AM 42.8 °F 34.5 °F 41.0 °F 93% 30.04 in 3.0 mi NNW 18.4 mph 24.2 mph N/A   Unknown
3:55 AM 42.8 °F 35.1 °F 39.2 °F 87% 30.05 in 2.5 mi NNW 16.1 mph 27.6 mph N/A   Unknown
4:15 AM 41.0 °F 31.9 °F 37.4 °F 87% 30.06 in 4.0 mi North 19.6 mph 26.5 mph N/A   Unknown
4:35 AM 41.0 °F 31.6 °F 37.4 °F 87% 30.07 in 4.0 mi NNW 20.7 mph 29.9 mph N/A   Unknown
4:55 AM 39.2 °F 29.8 °F 35.6 °F 87% 30.08 in 5.0 mi North 18.4 mph 27.6 mph N/A   Unknown
5:15 AM 37.4 °F 26.9 °F 35.6 °F 93% 30.08 in 5.0 mi NNW 20.7 mph 27.6 mph N/A Snow Light Snow
5:35 AM 37.4 °F 28.2 °F 35.6 °F 93% 30.10 in 7.0 mi North 16.1 mph 26.5 mph N/A Snow Light Snow
5:55 AM 37.4 °F 27.8 °F 35.6 °F 93% 30.11 in 4.0 mi North 17.3 mph 32.2 mph N/A Snow Light Snow
6:15 AM 35.6 °F 25.9 °F 33.8 °F 93% 30.12 in 7.0 mi North 16.1 mph 27.6 mph N/A Snow Light Snow
6:35 AM 35.6 °F 24.2 °F 33.8 °F 93% 30.13 in 7.0 mi NNW 21.9 mph 31.1 mph N/A Snow Light Snow
6:55 AM 35.6 °F 25.2 °F 33.8 °F 93% 30.13 in 10.0 mi North 18.4 mph 25.3 mph N/A Rain Light Rain
7:15 AM 35.6 °F 25.9 °F 33.8 °F 93% 30.14 in 10.0 mi NNW 16.1 mph 25.3 mph N/A   Overcast
7:35 AM 35.6 °F 23.7 °F 33.8 °F 93% 30.15 in 10.0 mi NNW 24.2 mph 32.2 mph N/A   Overcast
7:55 AM 35.6 °F 25.2 °F 32.0 °F 87% 30.16 in 10.0 mi North 18.4 mph 27.6 mph N/A   Overcast
8:15 AM 35.6 °F 24.8 °F 32.0 °F 87% 30.17 in 10.0 mi North 19.6 mph 29.9 mph N/A   Overcast
8:35 AM 33.8 °F 21.9 °F 32.0 °F 93% 30.17 in 10.0 mi NNW 21.9 mph 28.8 mph N/A   Overcast
8:55 AM 35.6 °F 24.8 °F 32.0 °F 87% 30.18 in 10.0 mi North 19.6 mph 29.9 mph N/A   Overcast
9:15 AM 35.6 °F 25.2 °F 32.0 °F 87% 30.20 in 10.0 mi NNW 18.4 mph 25.3 mph N/A   Overcast
9:35 AM 35.6 °F 25.9 °F 32.0 °F 87% 30.20 in 10.0 mi North 16.1 mph 26.5 mph N/A   Overcast
9:55 AM 35.6 °F 25.9 °F 32.0 °F 87% 30.21 in 10.0 mi North 16.1 mph 29.9 mph N/A   Overcast
10:15 AM 35.6 °F 24.0 °F 32.0 °F 87% 30.21 in 10.0 mi NNW 23.0 mph 32.2 mph N/A   Overcast
10:35 AM 35.6 °F 24.2 °F 30.2 °F 81% 30.22 in 10.0 mi NNW 21.9 mph 31.1 mph N/A   Overcast
11:15 AM 35.6 °F 24.5 °F 30.2 °F 81% 30.23 in 10.0 mi North 20.7 mph 28.8 mph N/A   Overcast
11:35 AM 35.6 °F 26.6 °F 28.4 °F 75% 30.24 in 10.0 mi NNW 13.8 mph 28.8 mph N/A   Overcast
11:55 AM 35.6 °F 24.2 °F 28.4 °F 75% 30.24 in 10.0 mi NNW 21.9 mph 32.2 mph N/A   Overcast
12:35 PM 33.8 °F 23.5 °F 26.6 °F 75% 30.24 in 10.0 mi NNW 16.1 mph 26.5 mph N/A   Overcast
12:55 PM 35.6 °F 25.5 °F 28.4 °F 75% 30.24 in 10.0 mi NNW 17.3 mph 26.5 mph N/A   Overcast
1:15 PM 35.6 °F 24.8 °F 26.6 °F 70% 30.24 in 10.0 mi North 19.6 mph 27.6 mph N/A   Overcast
1:35 PM 33.8 °F 22.5 °F 24.8 °F 70% 30.24 in 10.0 mi NNW 19.6 mph 33.4 mph N/A   Overcast
1:55 PM 35.6 °F 25.2 °F 24.8 °F 65% 30.25 in 10.0 mi North 18.4 mph 27.6 mph N/A   Overcast
2:35 PM 33.8 °F 24.3 °F 23.0 °F 65% 30.25 in 10.0 mi North 13.8 mph 24.2 mph N/A   Overcast
2:55 PM 33.8 °F 25.3 °F 23.0 °F 65% 30.26 in 10.0 mi North 11.5 mph 19.6 mph N/A   Overcast
3:15 PM 33.8 °F 23.9 °F 21.2 °F 60% 30.26 in 10.0 mi North 15.0 mph 26.5 mph N/A   Overcast
3:35 PM 33.8 °F 23.9 °F 21.2 °F 60% 30.26 in 10.0 mi NNW 15.0 mph 25.3 mph N/A   Overcast
3:55 PM 33.8 °F 23.9 °F 21.2 °F 60% 30.26 in 10.0 mi North 15.0 mph 24.2 mph N/A   Overcast
4:15 PM 33.8 °F 24.3 °F 19.4 °F 56% 30.28 in 10.0 mi North 13.8 mph 27.6 mph N/A   Mostly Cloudy
4:35 PM 33.8 °F 24.8 °F 19.4 °F 56% 30.28 in 10.0 mi North 12.7 mph 23.0 mph N/A   Mostly Cloudy
4:55 PM 32.0 °F 21.6 °F 19.4 °F 60% 30.29 in 10.0 mi North 15.0 mph 25.3 mph N/A   Overcast
5:15 PM 32.0 °F 23.0 °F 19.4 °F 60% 30.29 in 10.0 mi North 11.5 mph 25.3 mph N/A   Overcast
5:35 PM 32.0 °F 21.2 °F 19.4 °F 60% 30.30 in 10.0 mi NNW 16.1 mph 23.0 mph N/A   Overcast
5:55 PM 32.0 °F 21.6 °F 19.4 °F 60% 30.30 in 10.0 mi NNW 15.0 mph 21.9 mph N/A   Overcast
6:15 PM 32.0 °F 22.1 °F 17.6 °F 55% 30.31 in 10.0 mi NNW 13.8 mph 27.6 mph N/A   Overcast
6:35 PM 32.0 °F 21.6 °F 17.6 °F 55% 30.31 in 10.0 mi NNW 15.0 mph 20.7 mph N/A   Overcast
6:55 PM 32.0 °F 22.5 °F 17.6 °F 55% 30.32 in 10.0 mi NNW 12.7 mph 23.0 mph N/A   Overcast
7:15 PM 30.2 °F 19.3 °F 17.6 °F 60% 30.32 in 10.0 mi NNW 15.0 mph 26.5 mph N/A   Overcast
7:35 PM 30.2 °F 18.9 °F 17.6 °F 60% 30.33 in 10.0 mi North 16.1 mph 21.9 mph N/A   Overcast
7:55 PM 30.2 °F 18.1 °F 17.6 °F 60% 30.33 in 10.0 mi NNW 18.4 mph 24.2 mph N/A   Overcast
8:15 PM 30.2 °F 19.3 °F 17.6 °F 60% 30.33 in 10.0 mi NNW 15.0 mph 23.0 mph N/A   Overcast
8:35 PM 30.2 °F 18.9 °F 17.6 °F 60% 30.33 in 10.0 mi NNW 16.1 mph 28.8 mph N/A   Overcast
8:55 PM 30.2 °F 18.5 °F 17.6 °F 60% 30.33 in 10.0 mi North 17.3 mph 25.3 mph N/A   Overcast
9:15 PM 28.4 °F 17.5 °F 17.6 °F 64% 30.34 in 10.0 mi NNW 13.8 mph 20.7 mph N/A   Mostly Cloudy
9:35 PM 28.4 °F 16.2 °F 17.6 °F 64% 30.34 in 10.0 mi North 17.3 mph 26.5 mph N/A   Scattered Clouds
9:55 PM 28.4 °F 17.5 °F 17.6 °F 64% 30.35 in 10.0 mi North 13.8 mph 21.9 mph N/A   Scattered Clouds
10:15 PM 28.4 °F 17.5 °F 17.6 °F 64% 30.36 in 10.0 mi North 13.8 mph 20.7 mph N/A   Scattered Clouds
10:35 PM 28.4 °F 17.5 °F 17.6 °F 64% 30.36 in 10.0 mi North 13.8 mph 23.0 mph N/A   Clear
11:15 PM 28.4 °F 16.2 °F 15.8 °F 59% 30.36 in 10.0 mi North 17.3 mph 24.2 mph N/A   Clear
11:55 PM 26.6 °F 15.7 °F 15.8 °F 64% 30.34 in 10.0 mi North 12.7 mph 21.9 mph N/A   Clear